• In Belarus
  • List of Countries
  • For 7 days
  • Water Temperature
  • Weather Map
  • Weather Widgets
  • user-avatar
    Login

    Hourly Weather Andora

    Today, 28 February, Friday

    Time Temperature Precipitation Wind Pressure Humidity
    00:00 +1°C° 0.1 mm 2 mps 623 mmHg 95%
    01:00 +1°C° 0.2 mm 2 mps 622 mmHg 95%
    02:00 +1°C° 0.2 mm 2 mps 622 mmHg 94%
    03:00 +1°C° 0.2 mm 2 mps 622 mmHg 94%
    04:00 +1°C° 0.2 mm 2 mps 623 mmHg 94%
    05:00 +1°C° 0.2 mm 2 mps 623 mmHg 94%
    06:00 +2°C° 0.2 mm 1 mps 624 mmHg 94%
    07:00 +4°C° 0 mm 1 mps 624 mmHg 89%
    08:00 +5°C° 0 mm 1 mps 625 mmHg 83%
    09:00 +5°C° 0 mm 0 mps 625 mmHg 78%
    10:00 +8°C° 0 mm 1 mps 626 mmHg 73%
    11:00 +9°C° 0 mm 1 mps 626 mmHg 68%
    12:00 +10°C° 0 mm 1 mps 627 mmHg 63%
    13:00 +10°C° 0 mm 1 mps 626 mmHg 64%
    14:00 +10°C° 0 mm 1 mps 626 mmHg 65%
    15:00 +9°C° 0 mm 2 mps 625 mmHg 66%
    16:00 +7°C° 0 mm 2 mps 624 mmHg 75%
    17:00 +6°C° 0 mm 2 mps 623 mmHg 83%
    18:00 +4°C° 0 mm 2 mps 622 mmHg 92%
    19:00 +4°C° 0 mm 2 mps 622 mmHg 92%
    20:00 +3°C° 0 mm 2 mps 622 mmHg 93%
    21:00 +3°C° 0 mm 2 mps 621 mmHg 94%
    22:00 +3°C° 0 mm 2 mps 621 mmHg 93%
    23:00 +3°C° 0 mm 2 mps 620 mmHg 92%

    Tomorrow, 29 February, Saturday

    Time Temperature Precipitation Wind Pressure Humidity
    00:00 +2°C° 0 mm 2 mps 620 mmHg 91%
    01:00 +2°C° 0 mm 2 mps 619 mmHg 90%
    02:00 +2°C° 0 mm 2 mps 618 mmHg 89%
    03:00 +1°C° 0 mm 2 mps 617 mmHg 89%
    04:00 +1°C° 0 mm 2 mps 617 mmHg 88%
    05:00 +1°C° 0 mm 2 mps 616 mmHg 87%
    06:00 +1°C° 0 mm 2 mps 616 mmHg 86%
    07:00 +1°C° 0 mm 3 mps 616 mmHg 82%
    08:00 +2°C° 0 mm 3 mps 617 mmHg 78%
    09:00 +4°C° 0 mm 3 mps 617 mmHg 74%
    10:00 +5°C° 0 mm 3 mps 618 mmHg 69%
    11:00 +7°C° 0 mm 3 mps 618 mmHg 64%
    12:00 +8°C° 0 mm 3 mps 618 mmHg 59%
    13:00 +7°C° 0.1 mm 3 mps 618 mmHg 65%
    14:00 +5°C° 0.1 mm 3 mps 618 mmHg 71%
    15:00 +5°C° 0.1 mm 2 mps 617 mmHg 76%
    16:00 +4°C° 0.1 mm 2 mps 617 mmHg 82%
    17:00 +3°C° 0.1 mm 2 mps 617 mmHg 87%
    18:00 +3°C° 0.1 mm 1 mps 617 mmHg 93%
    19:00 +3°C° 0.1 mm 1 mps 617 mmHg 93%
    20:00 +3°C° 0.1 mm 1 mps 617 mmHg 94%
    21:00 +2°C° 0.1 mm 1 mps 618 mmHg 95%
    22:00 +2°C° 0 mm 1 mps 617 mmHg 95%
    23:00 +1°C° 0 mm 1 mps 617 mmHg 95%

    Day after tomorrow, 1 March, Sunday

    Time Temperature Precipitation Wind Pressure Humidity
    00:00 +1°C° 0 mm 1 mps 617 mmHg 96%
    01:00 +1°C° 0 mm 1 mps 617 mmHg 95%
    02:00 +1°C° 0 mm 1 mps 616 mmHg 95%
    03:00 0°C° 0 mm 1 mps 616 mmHg 95%
    04:00 0°C° 0 mm 1 mps 616 mmHg 94%
    05:00 0°C° 0 mm 1 mps 616 mmHg 94%
    06:00 -1°C° 0 mm 1 mps 615 mmHg 93%
    07:00 -2°C° 0 mm 2 mps 616 mmHg 88%
    08:00 -1°C° 0 mm 2 mps 616 mmHg 83%
    09:00 0°C° 0 mm 3 mps 616 mmHg 78%
    10:00 +1°C° 0 mm 3 mps 616 mmHg 76%
    11:00 +1°C° 0 mm 3 mps 616 mmHg 75%
    12:00 +2°C° 0 mm 3 mps 616 mmHg 73%
    13:00 +2°C° 0.7 mm 3 mps 615 mmHg 79%
    14:00 +1°C° 0.7 mm 3 mps 614 mmHg 84%
    15:00 +1°C° 0.7 mm 3 mps 614 mmHg 90%
    16:00 +1°C° 0.6 mm 2 mps 614 mmHg 92%
    17:00 -1°C° 0.6 mm 2 mps 614 mmHg 93%
    18:00 +1°C° 0.6 mm 1 mps 614 mmHg 95%
    19:00 0°C° 0 mm 1 mps 615 mmHg 94%
    20:00 0°C° 0 mm 1 mps 615 mmHg 93%
    21:00 -1°C° 0 mm 1 mps 615 mmHg 92%
    22:00 -1°C° 0 mm 1 mps 615 mmHg 90%
    23:00 -1°C° 0 mm 1 mps 615 mmHg 88%

    2 March, Monday

    Time Temperature Precipitation Wind Pressure Humidity
    00:00 -2°C° 0 mm 2 mps 614 mmHg 86%
    01:00 -2°C° 0 mm 2 mps 614 mmHg 87%
    02:00 -2°C° 0 mm 2 mps 614 mmHg 88%
    03:00 -2°C° 0 mm 2 mps 613 mmHg 89%
    04:00 -2°C° 0.3 mm 2 mps 613 mmHg 91%
    05:00 -2°C° 0.3 mm 2 mps 612 mmHg 93%
    06:00 -2°C° 0.3 mm 2 mps 612 mmHg 94%
    07:00 -2°C° 0.1 mm 2 mps 612 mmHg 91%
    08:00 -1°C° 0.1 mm 2 mps 612 mmHg 89%
    09:00 +2°C° 0.1 mm 1 mps 612 mmHg 86%
    10:00 +2°C° 0 mm 2 mps 612 mmHg 84%
    11:00 +2°C° 0 mm 2 mps 613 mmHg 82%
    12:00 +3°C° 0 mm 2 mps 613 mmHg 79%
    13:00 +2°C° 1.3 mm 2 mps 612 mmHg 83%
    14:00 +2°C° 1.3 mm 2 mps 612 mmHg 86%
    15:00 +1°C° 1.3 mm 2 mps 611 mmHg 89%
    16:00 -1°C° 1.4 mm 2 mps 612 mmHg 90%
    17:00 -2°C° 1.4 mm 3 mps 612 mmHg 92%
    18:00 -4°C° 1.4 mm 3 mps 612 mmHg 94%
    19:00 -5°C° 0.5 mm 3 mps 613 mmHg 93%
    20:00 -5°C° 0.5 mm 3 mps 613 mmHg 93%
    21:00 -6°C° 0.5 mm 3 mps 613 mmHg 92%
    22:00 -7°C° 0.3 mm 3 mps 614 mmHg 92%
    23:00 -7°C° 0.3 mm 3 mps 614 mmHg 92%

    3 March, Tuesday

    Time Temperature Precipitation Wind Pressure Humidity
    00:00 -8°C° 0.3 mm 3 mps 615 mmHg 91%
    01:00 -8°C° 0.1 mm 3 mps 615 mmHg 91%
    02:00 -8°C° 0.1 mm 3 mps 615 mmHg 91%
    03:00 -7°C° 0.1 mm 2 mps 615 mmHg 91%
    04:00 -7°C° 0 mm 2 mps 615 mmHg 90%
    05:00 -8°C° 0 mm 2 mps 615 mmHg 90%
    06:00 -8°C° 0 mm 2 mps 615 mmHg 89%
    07:00 -7°C° 0 mm 2 mps 616 mmHg 84%
    08:00 -5°C° 0 mm 2 mps 616 mmHg 78%
    09:00 -3°C° 0 mm 2 mps 617 mmHg 73%
    10:00 0°C° 0 mm 1 mps 617 mmHg 70%
    11:00 +1°C° 0 mm 1 mps 617 mmHg 68%
    12:00 +3°C° 0 mm 1 mps 618 mmHg 65%
    13:00 +3°C° 0.1 mm 1 mps 617 mmHg 68%
    14:00 +3°C° 0.1 mm 1 mps 617 mmHg 71%
    15:00 +3°C° 0.1 mm 1 mps 617 mmHg 74%
    16:00 +2°C° 0.3 mm 1 mps 617 mmHg 79%
    17:00 -1°C° 0.3 mm 2 mps 617 mmHg 84%
    18:00 -2°C° 0.3 mm 2 mps 616 mmHg 90%
    19:00 -3°C° 0.3 mm 2 mps 617 mmHg 91%
    20:00 -3°C° 0.3 mm 2 mps 617 mmHg 93%
    21:00 -3°C° 0.3 mm 2 mps 618 mmHg 94%
    22:00 -3°C° 0 mm 2 mps 618 mmHg 93%
    23:00 -4°C° 0 mm 2 mps 618 mmHg 91%

    4 March, Wednesday

    Time Temperature Precipitation Wind Pressure Humidity
    00:00 -4°C° 0 mm 2 mps 618 mmHg 90%
    01:00 -4°C° 0 mm 2 mps 618 mmHg 89%
    02:00 -4°C° 0 mm 2 mps 618 mmHg 89%
    03:00 -4°C° 0 mm 2 mps 618 mmHg 88%
    04:00 -4°C° 0 mm 2 mps 618 mmHg 84%
    05:00 -4°C° 0 mm 2 mps 618 mmHg 80%
    06:00 -4°C° 0 mm 2 mps 618 mmHg 76%
    07:00 -2°C° 0 mm 2 mps 619 mmHg 76%
    08:00 +2°C° 0 mm 1 mps 620 mmHg 76%
    09:00 +4°C° 0 mm 1 mps 621 mmHg 77%
    10:00 +5°C° 0 mm 1 mps 621 mmHg 79%
    11:00 +6°C° 0 mm 1 mps 621 mmHg 80%
    12:00 +7°C° 0 mm 1 mps 621 mmHg 82%
    13:00 +7°C° 0 mm 1 mps 621 mmHg 82%
    14:00 +7°C° 0 mm 1 mps 621 mmHg 82%
    15:00 +7°C° 0 mm 1 mps 620 mmHg 82%
    16:00 +6°C° 0 mm 1 mps 620 mmHg 84%
    17:00 +5°C° 0 mm 1 mps 619 mmHg 87%
    18:00 +4°C° 0 mm 1 mps 619 mmHg 89%
    19:00 +4°C° 0 mm 1 mps 618 mmHg 89%
    20:00 +2°C° 0 mm 2 mps 618 mmHg 89%
    21:00 +2°C° 0 mm 2 mps 618 mmHg 90%
    22:00 +2°C° 0 mm 2 mps 617 mmHg 91%
    23:00 +2°C° 0 mm 2 mps 617 mmHg 92%
    Show more